DW2380 Paimio FI current weather conditions

sailwx.info

Wind from 015 at 6 knots gusting 8

Air temperature -5.6° C
Dewpoint -9.3° C

Last reported at 2014-Oct-23 01:37 UTC.
Time now 2014-Oct-23 02:30 UTC

Location: N 60°28' E 022°40'.
View on Google Maps.

See reports from other nearby stations

  
Tides and Currents Weather Stations Pressure Air Temp Water Temp Dewpoint Dewpoint Depression Visibility Wind Speed Wind Dir Waves Ship Positions
date/time (UTC)wind fromknots sea level pressurealtimeterstation pressurevisibilityair tempwater tempwave heightnotes
2014-Oct-23 01:37 015 6 gusting 8 -5.6
2014-Oct-23 01:21 360 5 gusting 9 -5.6
2014-Oct-23 01:06 015 3 gusting 10 -5.6
2014-Oct-23 00:51 015 4 gusting 8 -5.6
2014-Oct-23 00:36 015 5 gusting 11 -5.6
2014-Oct-23 00:21 015 4 gusting 7 -5.6
2014-Oct-23 00:06 015 4 gusting 7 -5.6
2014-Oct-22 23:51 360 5 gusting 10 -5.6
2014-Oct-22 23:36 360 5 gusting 11 -5.6
2014-Oct-22 23:21 360 5 gusting 8 -5.6
2014-Oct-22 23:06 360 4 gusting 7 -5.6
2014-Oct-22 22:51 017 3 gusting 6 -5.6
2014-Oct-22 22:36 016 4 gusting 7 -5.0
2014-Oct-22 22:21 015 4 gusting 9 -5.0
2014-Oct-22 22:06 018 4 gusting 8 -5.0
2014-Oct-22 21:51 016 3 gusting 6 -5.0
2014-Oct-22 21:36 360 2 gusting 8 -5.0
2014-Oct-22 21:21 015 3 gusting 10 -4.4
2014-Oct-22 21:06 360 2 gusting 10 -4.4
2014-Oct-22 20:51 360 3 gusting 9 -4.4
2014-Oct-22 20:36 015 5 gusting 10 -4.4
2014-Oct-22 20:21 360 3 gusting 7 -4.4
2014-Oct-22 20:07 015 4 gusting 9 -4.4
2014-Oct-22 19:51 360 6 gusting 13 -3.9
2014-Oct-22 19:36 360 5 gusting 10 -3.9
2014-Oct-22 19:21 360 6 gusting 10 -3.9
2014-Oct-22 19:06 013 4 gusting 8 -3.9
2014-Oct-22 18:51 360 3 gusting 9 -3.9
2014-Oct-22 18:34 017 5 gusting 11 -3.9
2014-Oct-22 18:19 016 4 gusting 9 -3.9
2014-Oct-22 18:04 360 5 gusting 12 -3.3
2014-Oct-22 17:49 360 5 gusting 12 -3.3
2014-Oct-22 17:34 014 5 gusting 12 -3.3
2014-Oct-22 17:18 360 6 gusting 12 -3.3
2014-Oct-22 17:03 360 6 gusting 12 -3.3
2014-Oct-22 16:48 360 4 gusting 14 -3.3
2014-Oct-22 16:33 013 5 gusting 11 -2.8
2014-Oct-22 16:18 360 4 gusting 12 -2.8
2014-Oct-22 16:03 360 6 gusting 10 -2.8
2014-Oct-22 15:48 016 5 gusting 10 -2.8
2014-Oct-22 15:32 360 3 gusting 10 -2.2
2014-Oct-22 15:17 012 6 gusting 9 -2.2
2014-Oct-22 15:02 360 3 gusting 11 -1.7
2014-Oct-22 14:47 360 4 gusting 9 -1.7
2014-Oct-22 14:32 360 5 gusting 9 -1.7
2014-Oct-22 14:17 015 4 gusting 10 -1.1
2014-Oct-22 14:02 014 5 gusting 9 -1.1
2014-Oct-22 13:46 360 3 gusting 8 -1.1
2014-Oct-22 13:31 013 6 gusting 11 -0.6
2014-Oct-22 13:16 360 4 gusting 10 -0.6
2014-Oct-22 13:01 017 6 gusting 13 -0.0
2014-Oct-22 12:46 360 6 gusting 13 -0.0
2014-Oct-22 12:31 017 4 gusting 10 0.6
2014-Oct-22 12:16 018 6 gusting 11 0.6
2014-Oct-22 12:01 360 6 gusting 12 0.6
2014-Oct-22 11:46 360 4 gusting 12 0.6
2014-Oct-22 11:31 013 6 gusting 13 0.6
2014-Oct-22 11:16 360 4 gusting 12 1.1
2014-Oct-22 11:01 016 8 gusting 13 1.1
2014-Oct-22 10:44 360 4 gusting 11 1.1
2014-Oct-22 10:29 360 4 gusting 12 0.6
2014-Oct-22 10:14 360 6 gusting 13 0.6
2014-Oct-22 09:59 360 5 gusting 12 0.6
2014-Oct-22 09:44 360 5 gusting 14 0.6
2014-Oct-22 09:28 360 6 gusting 11 -0.0
2014-Oct-22 09:13 360 5 gusting 15 -0.0
2014-Oct-22 08:58 017 6 gusting 12 -0.6
2014-Oct-22 08:43 017 6 gusting 13 -0.6
2014-Oct-22 08:28 017 5 gusting 12 -1.1
2014-Oct-22 08:13 360 7 gusting 13 -1.1
2014-Oct-22 07:58 360 6 gusting 13 -1.7
2014-Oct-22 07:42 360 6 gusting 12 -1.7
2014-Oct-22 07:27 360 6 gusting 12 -2.2
2014-Oct-22 07:12 016 5 gusting 10 -2.8
2014-Oct-22 06:57 360 5 gusting 13 -2.8
2014-Oct-22 06:42 017 6 gusting 16 -2.8
2014-Oct-22 06:27 015 8 gusting 14 -2.8
2014-Oct-22 06:11 360 7 gusting 14 -2.8
2014-Oct-22 05:56 015 6 gusting 14 -2.2
2014-Oct-22 05:41 013 6 gusting 13 -2.2
2014-Oct-22 05:26 360 6 gusting 13 -1.7
2014-Oct-22 05:11 016 7 gusting 14 -1.7
2014-Oct-22 04:56 360 6 gusting 14 -1.7
2014-Oct-22 04:41 360 9 gusting 16 -1.1
2014-Oct-22 04:26 017 7 gusting 13 -1.1
2014-Oct-22 04:11 360 8 gusting 13 -1.1
2014-Oct-22 03:56 017 5 gusting 13 -1.1
2014-Oct-22 03:41 017 6 gusting 14 -1.1
2014-Oct-22 03:24 360 7 gusting 13 -1.1
2014-Oct-22 03:10 360 6 gusting 14 -1.1
2014-Oct-22 02:55 360 4 gusting 9 -1.1
2014-Oct-22 02:40 360 5 gusting 13 -1.1
2014-Oct-22 02:25 360 6 gusting 13 -1.1
2014-Oct-22 02:10 018 6 gusting 12 -1.1
2014-Oct-22 01:55 017 3 gusting 10 -1.1
2014-Oct-22 01:40 018 5 gusting 12 -1.1
2014-Oct-22 01:25 022 5 gusting 13 -1.1
2014-Oct-22 01:10 360 4 gusting 10 -1.1
2014-Oct-22 00:55 360 5 gusting 10 -1.1
2014-Oct-22 00:40 360 6 gusting 13 -1.1
2014-Oct-22 00:25 019 5 gusting 11 -1.1
2014-Oct-22 00:10 018 6 gusting 11 -1.1
2014-Oct-21 23:55 017 5 gusting 10 -1.1
2014-Oct-21 23:40 360 7 gusting 11 -1.1
2014-Oct-21 23:24 360 2 gusting 8 -1.1
2014-Oct-21 23:09 017 3 gusting 9 -1.1
2014-Oct-21 22:54 018 5 gusting 9 -1.1
2014-Oct-21 22:39 014 3 gusting 7 -1.1
2014-Oct-21 22:24 360 2 gusting 7 -1.1
2014-Oct-21 22:09 360 1 gusting 7 -1.1
2014-Oct-21 21:54 360 1 gusting 6 -1.1
2014-Oct-21 21:39 017 2 gusting 7 -1.1
2014-Oct-21 21:24 016 4 gusting 17 -0.6
2014-Oct-21 21:09 019 7 gusting 17 -0.6
2014-Oct-21 20:54 360 7 gusting 13 -0.6
2014-Oct-21 20:39 020 6 gusting 17 -0.6
2014-Oct-21 20:24 022 6 gusting 14 -0.6
2014-Oct-21 20:09 021 8 gusting 15 -1.1
2014-Oct-21 19:53 360 6 gusting 15 -0.6
2014-Oct-21 19:38 020 8 gusting 14 -0.6
2014-Oct-21 19:23 360 6 gusting 14 -0.6
2014-Oct-21 19:08 360 7 gusting 14 -0.6
2014-Oct-21 18:53 360 8 gusting 13 -0.6
2014-Oct-21 18:37 019 7 gusting 13 -0.6
2014-Oct-21 18:22 360 8 gusting 20 -0.0
2014-Oct-21 18:07 020 8 gusting 16 -0.0
2014-Oct-21 17:52 019 8 gusting 15 -0.0
2014-Oct-21 17:37 019 5 gusting 12 -0.0
2014-Oct-21 17:22 019 10 gusting 16 0.6
2014-Oct-21 17:06 360 6 gusting 12 0.6
2014-Oct-21 16:51 019 8 gusting 13 0.6
2014-Oct-21 16:36 017 6 gusting 13 0.6
2014-Oct-21 16:21 360 6 gusting 12 0.6
2014-Oct-21 16:06 017 6 gusting 10 0.6
2014-Oct-21 15:51 360 6 gusting 11 0.6
2014-Oct-21 15:36 360 6 gusting 9 0.6
2014-Oct-21 15:21 017 5 gusting 9 0.6
2014-Oct-21 15:06 019 3 gusting 10 0.6
2014-Oct-21 14:51 360 7 gusting 12 0.6
2014-Oct-21 14:36 360 5 gusting 10 0.6
2014-Oct-21 14:21 360 6 gusting 10 0.6
2014-Oct-21 14:04 360 6 gusting 11 1.1
2014-Oct-21 13:49 360 4 gusting 12 1.1
2014-Oct-21 13:34 360 4 gusting 13 1.1
2014-Oct-21 13:19 018 3 gusting 13 1.1
2014-Oct-21 13:04 360 4 gusting 11 1.1
2014-Oct-21 12:49 018 6 gusting 13 1.1
2014-Oct-21 12:33 017 8 gusting 13 1.1
2014-Oct-21 12:19 017 5 gusting 13 1.1
2014-Oct-21 12:03 360 5 gusting 9 1.1
2014-Oct-21 11:48 018 6 gusting 11 1.1
2014-Oct-21 11:33 360 3 gusting 8 1.1
2014-Oct-21 11:18 019 5 gusting 12 1.1
2014-Oct-21 11:02 360 6 gusting 13 1.1
2014-Oct-21 10:48 020 7 gusting 12 1.1
2014-Oct-21 10:32 360 6 gusting 11 1.1
2014-Oct-21 10:17 019 7 gusting 11 1.1
2014-Oct-21 10:02 019 3 gusting 8 1.1
2014-Oct-21 09:47 360 4 gusting 12 1.1
2014-Oct-21 09:32 360 6 gusting 11 1.1
2014-Oct-21 09:17 020 6 gusting 14 1.1
2014-Oct-21 09:01 024 5 gusting 8 1.1
2014-Oct-21 08:46 022 5 gusting 10 1.1
2014-Oct-21 08:31 360 3 gusting 7 1.1
2014-Oct-21 08:16 020 5 gusting 10 1.1
2014-Oct-21 08:01 020 5 gusting 8 1.1
2014-Oct-21 07:46 023 2 gusting 10 1.1
2014-Oct-21 07:31 360 2 gusting 6 1.1
2014-Oct-21 07:16 360 3 gusting 6 1.1
2014-Oct-21 07:01 360 3 gusting 8 1.1
2014-Oct-21 06:46 360 2 gusting 8 1.1
2014-Oct-21 06:31 360 2 gusting 6 1.1
2014-Oct-21 06:16 022 2 gusting 6 1.1
2014-Oct-21 05:59 360 2 gusting 7 1.1
2014-Oct-21 05:44 360 4 gusting 7 1.1
2014-Oct-21 05:29 020 0 gusting 4 1.1
2014-Oct-21 05:14 020 1 gusting 4 1.1
2014-Oct-21 04:59 018 2 gusting 8 1.1
2014-Oct-21 04:44 022 5 gusting 9 1.1
2014-Oct-21 04:28 360 4 gusting 8 1.1
2014-Oct-21 04:13 360 3 gusting 7 1.1
2014-Oct-21 03:58 018 3 gusting 7 1.1
2014-Oct-21 03:43 020 4 gusting 9 1.1
2014-Oct-21 03:28 360 4 gusting 7 1.1
2014-Oct-21 03:12 020 3 gusting 9 1.1
2014-Oct-21 02:57 027 5 gusting 10 1.1
2014-Oct-21 02:42 025 4 gusting 8 1.7
2014-Oct-21 02:27 360 3 gusting 6 1.7
2014-Oct-21 02:12 022 3 gusting 6 1.7